{"data":{"norad_id":44906,"intl_designator":"2019-096B","name":"GONETS-M 15","alt_names":[],"object_type":"PAYLOAD","status":"ACTIVE","operator":null,"country":"CIS","launch_date":"2019-12-26","launch_site_code":"PLMSC","launch_vehicle":null,"mission":null,"orbit_class":"UNKNOWN","rcs_meters":null,"size_class":null,"mass_kg":null,"dimensions":null,"purposes":[],"wikipedia_slug":null,"has_3d_model":false,"image_url":null,"decayed_at":null,"tle_current":{"epoch":"2026-05-25T05:11:10.174272Z","epoch_age_seconds":63149,"freshness":"FRESH","line1":"1 44906U 19096B   26145.21608998  .00000092  00000+0  59075-3 0  9998","line2":"2 44906  82.5234  99.3387 0014073 223.7349 136.2616 12.42870700290796","mean_motion":12.428707,"eccentricity":0.0014073,"inclination_deg":82.5234,"raan_deg":99.3387,"arg_perigee_deg":223.7349,"mean_anomaly_deg":136.2616,"bstar":0.00059075,"rev_number":29079,"period_min":115.86080515053,"perigee_km":1483.3782578043,"apogee_km":1505.5364618895,"semimajor_km":7872.5943598469,"source":"CELESTRAK","updated_at":"2026-05-25T13:37:56.041208Z"}}}